Weather History for FMMT - February, 2012

Change the Weather History Date:

Tuesday, February 14, 2012

  Actual Average Record
Temperature  
Mean Temperature 80 °F -  
Max Temperature 87 °F 86 °F - ()
Min Temperature 72 °F 73 °F - ()
Cooling Degree Days 14    
Growing Degree Days 30 (Base 50)    
Moisture  
Dew Point 78 °F    
Average Humidity 85    
Maximum Humidity 94    
Minimum Humidity 70    
Precipitation  
Precipitation 0.02 in 0.56 in - ()
Sea Level Pressure  
Sea Level Pressure 29.58 in    
Wind  
Wind Speed 23 mph ()    
Max Wind Speed 52 mph    
Max Gust Speed 71 mph    
Visibility 5.7 miles    
Events Rain    
T = Trace of Precipitation, MM = Missing Value Source: Averaged Metar Reports

Daily Weather History Graph

Daily Weather History Graph

Search for Another Location

Airport or City:

Trip Planner

Search our weather history database for the weather conditions in past years. The results will help you decide how hot, cold, wet, or windy it might be!

Date:

Astronomy

Feb. 14, 2012 Rise Set
Actual Time 5:35 AM EAT 6:17 PM EAT
Civil Twilight 5:12 AM EAT 6:40 PM EAT
Nautical Twilight 4:46 AM EAT 7:06 PM EAT
Astronomical Twilight 4:19 AM EAT 7:33 PM EAT
Moon 11:16 PM EAT (2/14) 11:43 AM EAT (2/14)
Length of Visible Light 13h 27m
Length of Day
12h 42m
Waning Gibbous, 54% of the Moon is Illuminated
Feb 14
Waning Gibbous
Feb 14
Last Quarter
Feb 22
New
Mar 1
First Quarter
Mar 8
Full

Hourly Weather History & Observations

Time (EAT) Temp. Heat Index Dew Point Humidity Pressure Visibility Wind Dir Wind Speed Gust Speed Precip Events Conditions
12:00 AM - - - N/A% 29.09 in 2.5 mi NNW 51.8 mph 71.3 mph N/A Rain Rain
1:00 AM - - - N/A% 29.12 in 2.5 mi North 38.0 mph 66.7 mph N/A Rain Rain
2:00 AM - - - N/A% 29.15 in 2.5 mi North 33.4 mph 51.8 mph N/A Rain Rain
3:00 AM - - - % 29.19 in 2 mi North 31.1 mph - - Rain Rain
3:00 AM - - - N/A% 29.18 in 2.5 mi North 31.1 mph 40.3 mph N/A Rain Rain
4:00 AM - - - N/A% 29.30 in 2.5 mi North 40.3 mph 56.4 mph N/A Rain Rain
6:00 AM 77.0 °F - 75.2 °F 94% 29.50 in 3.1 mi NW 28.8 mph 58.7 mph N/A Rain Light Rain
7:00 AM 77.0 °F - 75.2 °F 94% 29.59 in 3.7 mi North 28.8 mph - N/A Rain Rain
8:00 AM 77.0 °F - 75.2 °F 94% 29.65 in 5.0 mi North 18.4 mph - N/A Rain Light Rain
9:00 AM 83 °F - 77 °F 79% 29.70 in 9 mi North 18.4 mph - - Rain Light Rain
9:00 AM 84.2 °F 94.1 °F 77.0 °F 79% 29.68 in 6.2 mi North 18.4 mph - N/A   Mostly Cloudy
10:00 AM 80.6 °F 87.1 °F 77.0 °F 89% 29.71 in 6.2 mi North 16.1 mph - N/A   Mostly Cloudy
11:00 AM 86.0 °F 99.3 °F 78.8 °F 79% 29.71 in 6.2 mi North 13.8 mph - N/A   Mostly Cloudy
12:00 PM 87.8 °F 99.7 °F 77.0 °F 70% 29.71 in 6.2 mi North 13.8 mph - N/A   Mostly Cloudy
1:00 PM 86.0 °F 99.3 °F 78.8 °F 79% 29.68 in 6.2 mi North 13.8 mph - N/A   Mostly Cloudy
2:00 PM 86.0 °F 99.3 °F 78.8 °F 79% 29.68 in 6.2 mi North 13.8 mph - N/A   Mostly Cloudy
3:00 PM 86 °F - 78 °F 73% 29.70 in 19 mi ENE 13.8 mph - -   Overcast
3:00 PM 86.0 °F 99.3 °F 78.8 °F 79% 29.68 in 6.2 mi ENE 13.8 mph - N/A   Mostly Cloudy
4:00 PM 84.2 °F 96.1 °F 78.8 °F 84% 29.68 in 6.2 mi ENE 13.8 mph - N/A   Mostly Cloudy
5:00 PM 84.2 °F 96.1 °F 78.8 °F 84% 29.71 in 6.2 mi ENE 11.5 mph - N/A   Mostly Cloudy
6:00 PM 84.2 °F 98.3 °F 80.6 °F 89% 29.71 in 6.2 mi ENE 11.5 mph - N/A   Mostly Cloudy
7:00 PM 84.2 °F 98.3 °F 80.6 °F 89% 29.77 in 6.2 mi ENE 9.2 mph - N/A   Mostly Cloudy
8:00 PM 84.2 °F 98.3 °F 80.6 °F 89% 29.80 in 6.2 mi North 9.2 mph - N/A   Mostly Cloudy
9:00 PM 84.2 °F 98.3 °F 80.6 °F 89% 29.80 in 6.2 mi North 6.9 mph - N/A   Mostly Cloudy
10:00 PM 82.4 °F 94.0 °F 80.6 °F 94% 29.83 in 6.2 mi North 4.6 mph - N/A   Mostly Cloudy
11:00 PM 82.4 °F 94.0 °F 80.6 °F 94% 29.83 in 6.2 mi North 4.6 mph - N/A   Mostly Cloudy